Regional Weather Roundup
Issued by NWS

Home | Current Version | Previous Version | Text Only | Print | Product List | Glossary On
Versions: 1 2 3 4 5 6 7 8 9 10 11 12 13 14 15 16 17 18 19 20 21 22 23 24 25 26 27 28 29 30 31 32 33 34 35 36 37 38 39 40 41 42 43 44 45 46 47 48 49 50
000
ASUS43 KDTX 140510
RWRMI
MICHIGAN HOURLY REGIONAL WEATHER ROUNDUP
NATIONAL WEATHER SERVICE DETROIT/PONTIAC MI
100 AM EDT MON JUL 14 2014

NOTE: "FAIR" INDICATES FEW OR NO CLOUDS BELOW 12,000 FEET WITH NO
SIGNIFICANT WEATHER AND/OR OBSTRUCTION TO VISIBILITY.

MIZ047>049-052>055-059>063-066>070-074>076-081>083-140600-
SOUTHEAST LOWER MICHIGAN

CITY           SKY/WX    TMP DP  RH WIND       PRES   REMARKS
ADRIAN         CLEAR     65  61  87 CALM      29.89F
ALMA           MOCLDY    65  63  92 CALM      29.88F
ANN ARBOR      CLEAR     59  56  89 CALM      29.89F
BAD AXE        CLOUDY    60  55  81 CALM      29.92S
CARO           MOCLDY    63  62  97 E7        29.90S
DETROIT CITY   CLEAR     74  58  57 CALM      29.89S
DETROIT        PTCLDY    70  59  68 CALM      29.89F
FLINT          PTCLDY    69  61  75 SW3       29.88F
GROSSE ILE     CLEAR     70  64  83 CALM      29.88S
HILLSDALE      MOCLDY    65  64  99 S3        29.89F
HOWELL         PTCLDY    64  62  92 CALM      29.88F

CITY           SKY/WX    TMP DP  RH WIND       PRES   REMARKS
JACKSON        CLOUDY    69  60  73 SW5       29.89F
LAMBERTVILLE   CLEAR     64  63  94 CALM      29.90S
LANSING        MOCLDY    67  62  84 CALM      29.89F
LAPEER         FAIR      63  61  94 CALM      29.89F
MASON          CLOUDY    64  62  93 W5        29.89S
MONROE         CLEAR     64  63  94 CALM      29.87F
MT. CLEMENS    CLEAR     68  59  73 W2        29.88S
PONTIAC        MOCLDY    67  60  78 CALM      29.89S
PORT HOPE        N/A     63  53  70 SE5       29.89S
PORT HURON     CLEAR     63  59  88 NE3       29.90F
TRI CITIES     MOCLDY    65  61  87 NE7       29.89F
TROY           CLEAR     70  58  65 W3        29.90S
SAGINAW HB     MOCLDY    64  63  94 N3        29.88F
$$
MIZ043>046-050>051-056>058-064>065-071>073-077>080-140600-
SOUTHWEST LOWER MICHIGAN

CITY           SKY/WX    TMP DP  RH WIND       PRES   REMARKS
BATTLE CREEK   CLOUDY    68  64  87 S6        29.89S
BENTON HARBOR  CLOUDY    69  67  93 W7        29.87S
BIG RAPIDS     PTCLDY    62  62 100 CALM      29.89S
COLDWATER      CLOUDY    72  60  65 NW5       29.89S
FREMONT        MOCLDY    62  62 100 CALM      29.88S
HOLLAND        CLEAR     69  65  86 N3        29.88F
GRAND RAPIDS   PTCLDY    68  63  84 S3        29.88S
IONIA          FAIR      65  63  95 CALM      29.87F
KALAMAZOO      MOCLDY    69  65  86 S6        29.88F
LUDINGTON      FOG       57  56  98 CALM      29.88F VSB 1/4
MARSHALL       LGT RAIN  66  62  87 S6        29.89R
MOUNT PLEASANT MOCLDY    64  62  94 CALM      29.89S
MUSKEGON       PTCLDY    63  61  93 NW3       29.88S
SOUTH HAVEN    PTCLDY    65  65 100 CALM      29.87F
$$
MIZ016>042-140600-
NORTHERN LOWER MICHIGAN

CITY           SKY/WX    TMP DP  RH WIND       PRES   REMARKS
ALPENA         CLEAR     50  48  93 CALM      29.88F
BEAVER ISLAND  CLOUDY    57  54  89 CALM      29.86R
BELLAIRE       CLEAR     52  50  94 CALM      29.86F
CADILLAC       CLEAR     49  49 100 CALM      29.89F
CHARLEVOIX     CLEAR     57  53  86 SE3       29.88F
FRANKFORT      MOCLDY    58  55  91 CALM      29.87S
GAYLORD        CLEAR     54  49  83 CALM      29.88F
GRAYLING       CLEAR     48  48 100 CALM      29.89F
HARBOR SPRINGS CLEAR     55  52  92 CALM      29.85F
HOUGHTON LAKE  CLEAR     49  48  97 CALM      29.89F
MANISTEE       CLOUDY    55  54  94 CALM      29.88S VSB 1/4
OSCODA         CLEAR     54  51  87 CALM      29.89S
PELLSTON       CLEAR     48  47  96 CALM      29.86F
ROGERS CITY    CLEAR     55  52  90 S6        29.88S
TRAVERSE CITY  CLEAR     59  51  75 CALM      29.86S
$$
MIZ007>008-015-140600-
EASTERN UPPER MICHIGAN

CITY           SKY/WX    TMP DP  RH WIND       PRES   REMARKS
KINROSS        PTCLDY    55  48  76 S6        29.85S
MACKINAC ISLAN MOCLDY    59  49  69 S7        29.85F
NEWBERRY       MOCLDY    54  50  87 SW13      29.84S
S. S. MARIE    PTCLDY    53  46  77 CALM      29.84S
MUNISING         N/A     60  48  64 S8        29.82S
$$
MIZ004>006-011>014-085-140600-
CENTRAL UPPER MICHIGAN

CITY           SKY/WX    TMP DP  RH WIND       PRES   REMARKS
MANISTIQUE     CLOUDY    55  54  95 SE6       29.83F
ESCANABA       CLOUDY    57  52  82 W5        29.83S
MENOMINEE      CLOUDY    63  46  55 W3        29.84S
SAWYER-GWINN   CLOUDY    59  51  75 SE3       29.83F
$$
MIZ001>003-009>011-084-140600-
WESTERN UPPER MICHIGAN

CITY           SKY/WX    TMP DP  RH WIND       PRES   REMARKS
IRON MOUNTAIN  CLOUDY    58  51  78 CALM      29.84S
HOUGHTON       MOCLDY    54  48  80 NW6       29.80S
COPPER HARBOR    N/A     59  48  67 NW7       29.79R
IRONWOOD       CLOUDY    57  46  67 W3        29.84S
$$

ABBREVIATIONS USED IN REMARKS
   TC - TEMPERATURE IN CELSIUS
  WCI - WIND CHILL INDEX
   HX - HEAT INDEX
  VSB - VISIBILITY



USA.gov is the U.S. government's official web portal to all federal, state and local government web resources and services.